• In Portugal
  • List of Countries
  • For 7 days
  • Water Temperature
  • Satellite Maps
  • Weather Map
  • Weather Widgets
  • user-avatar
    Login

    Hourly Weather Shkoder

    Today, 21 February, Wednesday

    Time Temperature Precipitation Wind Pressure Humidity
    00:00 +5°C° 0.5 mm 3 mps 731 mmHg 89%
    01:00 +5°C° 0.5 mm 3 mps 731 mmHg 88%
    02:00 +5°C° 0.4 mm 3 mps 731 mmHg 88%
    03:00 +5°C° 0.4 mm 3 mps 731 mmHg 88%
    04:00 +5°C° 0.4 mm 3 mps 731 mmHg 88%
    05:00 +5°C° 0.3 mm 3 mps 731 mmHg 88%
    06:00 +5°C° 0.3 mm 3 mps 731 mmHg 87%
    07:00 +5°C° 0.3 mm 3 mps 731 mmHg 87%
    08:00 +5°C° 0.3 mm 3 mps 731 mmHg 87%
    09:00 +7°C° 0.3 mm 3 mps 731 mmHg 86%
    10:00 +8°C° 0.3 mm 3 mps 731 mmHg 86%
    11:00 +8°C° 0.4 mm 3 mps 731 mmHg 85%
    12:00 +9°C° 0.4 mm 2 mps 731 mmHg 84%
    13:00 +9°C° 0.4 mm 2 mps 731 mmHg 83%
    14:00 +9°C° 0.6 mm 3 mps 730 mmHg 83%
    15:00 +9°C° 0.6 mm 3 mps 730 mmHg 84%
    16:00 +8°C° 0.6 mm 3 mps 730 mmHg 85%
    17:00 +8°C° 0.6 mm 3 mps 730 mmHg 85%
    18:00 +8°C° 0.6 mm 3 mps 730 mmHg 85%
    19:00 +7°C° 0.6 mm 3 mps 731 mmHg 86%
    20:00 +7°C° 0.7 mm 3 mps 731 mmHg 86%
    21:00 +7°C° 0.7 mm 3 mps 731 mmHg 87%
    22:00 +7°C° 0.7 mm 3 mps 731 mmHg 87%
    23:00 +7°C° 0.4 mm 3 mps 731 mmHg 87%

    Tomorrow, 22 February, Thursday

    Time Temperature Precipitation Wind Pressure Humidity
    00:00 +7°C° 0.4 mm 3 mps 731 mmHg 87%
    01:00 +7°C° 0.4 mm 3 mps 731 mmHg 86%
    02:00 +7°C° 0.8 mm 3 mps 731 mmHg 88%
    03:00 +5°C° 0.8 mm 3 mps 731 mmHg 89%
    04:00 +5°C° 0.8 mm 3 mps 731 mmHg 90%
    05:00 +6°C° 0.5 mm 2 mps 731 mmHg 90%
    06:00 +6°C° 0.5 mm 2 mps 731 mmHg 89%
    07:00 +6°C° 0.5 mm 2 mps 731 mmHg 89%
    08:00 +7°C° 0.1 mm 2 mps 732 mmHg 86%
    09:00 +8°C° 0.1 mm 2 mps 732 mmHg 83%
    10:00 +10°C° 0.1 mm 2 mps 732 mmHg 80%
    11:00 +10°C° 0.1 mm 2 mps 732 mmHg 78%
    12:00 +12°C° 0.1 mm 2 mps 732 mmHg 75%
    13:00 +12°C° 0.1 mm 2 mps 732 mmHg 73%
    14:00 +12°C° 0.3 mm 2 mps 732 mmHg 75%
    15:00 +12°C° 0.3 mm 2 mps 732 mmHg 76%
    16:00 +12°C° 0.3 mm 2 mps 732 mmHg 77%
    17:00 +10°C° 0.4 mm 2 mps 732 mmHg 80%
    18:00 +9°C° 0.4 mm 2 mps 733 mmHg 83%
    19:00 +9°C° 0.4 mm 2 mps 733 mmHg 86%
    20:00 +8°C° 0.4 mm 2 mps 733 mmHg 86%
    21:00 +8°C° 0.4 mm 2 mps 733 mmHg 86%
    22:00 +8°C° 0.4 mm 2 mps 734 mmHg 86%
    23:00 +8°C° 0.1 mm 2 mps 734 mmHg 86%

    Day after tomorrow, 23 February, Friday

    Time Temperature Precipitation Wind Pressure Humidity
    00:00 +8°C° 0.1 mm 2 mps 734 mmHg 85%
    01:00 +8°C° 0.1 mm 2 mps 733 mmHg 85%
    02:00 +8°C° 0.1 mm 2 mps 733 mmHg 85%
    03:00 +8°C° 0.1 mm 2 mps 733 mmHg 84%
    04:00 +8°C° 0.1 mm 2 mps 733 mmHg 84%
    05:00 +8°C° 0.2 mm 2 mps 733 mmHg 84%
    06:00 +8°C° 0.2 mm 2 mps 733 mmHg 85%
    07:00 +8°C° 0.2 mm 2 mps 734 mmHg 85%
    08:00 +9°C° 0.1 mm 2 mps 734 mmHg 82%
    09:00 +10°C° 0.1 mm 2 mps 734 mmHg 79%
    10:00 +12°C° 0.1 mm 2 mps 734 mmHg 76%
    11:00 +13°C° 0 mm 2 mps 734 mmHg 74%
    12:00 +13°C° 0 mm 2 mps 734 mmHg 71%
    13:00 +14°C° 0 mm 2 mps 733 mmHg 68%
    14:00 +14°C° 0 mm 2 mps 733 mmHg 70%
    15:00 +13°C° 0 mm 2 mps 733 mmHg 73%
    16:00 +12°C° 0 mm 3 mps 733 mmHg 75%
    17:00 +11°C° 0 mm 3 mps 733 mmHg 77%
    18:00 +10°C° 0 mm 3 mps 733 mmHg 80%
    19:00 +8°C° 0 mm 4 mps 733 mmHg 82%
    20:00 +8°C° 0 mm 4 mps 733 mmHg 82%
    21:00 +8°C° 0 mm 4 mps 733 mmHg 81%
    22:00 +7°C° 0 mm 4 mps 733 mmHg 81%
    23:00 +7°C° 0 mm 4 mps 733 mmHg 81%

    24 February, Saturday

    Time Temperature Precipitation Wind Pressure Humidity
    00:00 +7°C° 0 mm 4 mps 733 mmHg 81%
    01:00 +7°C° 0 mm 5 mps 733 mmHg 81%
    02:00 +7°C° 0.1 mm 4 mps 733 mmHg 82%
    03:00 +7°C° 0.1 mm 4 mps 733 mmHg 83%
    04:00 +8°C° 0.1 mm 3 mps 733 mmHg 83%
    05:00 +8°C° 0.4 mm 3 mps 734 mmHg 85%
    06:00 +8°C° 0.4 mm 3 mps 734 mmHg 86%
    07:00 +8°C° 0.4 mm 2 mps 734 mmHg 87%
    08:00 +8°C° 0.6 mm 2 mps 734 mmHg 86%
    09:00 +8°C° 0.6 mm 2 mps 734 mmHg 85%
    10:00 +10°C° 0.6 mm 1 mps 735 mmHg 85%
    11:00 +9°C° 1.2 mm 2 mps 734 mmHg 87%
    12:00 +9°C° 1.2 mm 2 mps 734 mmHg 89%
    13:00 +8°C° 1.2 mm 2 mps 734 mmHg 91%
    14:00 +8°C° 0.7 mm 2 mps 734 mmHg 90%
    15:00 +9°C° 0.7 mm 2 mps 734 mmHg 89%
    16:00 +9°C° 0.7 mm 2 mps 734 mmHg 87%
    17:00 +8°C° 0.4 mm 2 mps 734 mmHg 88%
    18:00 +8°C° 0.4 mm 2 mps 734 mmHg 89%
    19:00 +8°C° 0.4 mm 2 mps 735 mmHg 90%
    20:00 +7°C° 0.5 mm 2 mps 735 mmHg 90%
    21:00 +7°C° 0.5 mm 2 mps 735 mmHg 90%
    22:00 +7°C° 0.5 mm 2 mps 735 mmHg 90%
    23:00 +7°C° 0.7 mm 2 mps 735 mmHg 91%

    25 February, Sunday

    Time Temperature Precipitation Wind Pressure Humidity
    00:00 +6°C° 0.7 mm 2 mps 735 mmHg 91%
    01:00 +6°C° 0.7 mm 2 mps 735 mmHg 91%
    02:00 +6°C° 0.8 mm 2 mps 735 mmHg 91%
    03:00 +5°C° 0.8 mm 3 mps 735 mmHg 91%
    04:00 +4°C° 0.8 mm 3 mps 734 mmHg 91%
    05:00 +4°C° 0.6 mm 3 mps 734 mmHg 91%
    06:00 +4°C° 0.6 mm 3 mps 734 mmHg 90%
    07:00 +3°C° 0.6 mm 3 mps 734 mmHg 90%
    08:00 +3°C° 0.6 mm 3 mps 735 mmHg 89%
    09:00 +4°C° 0.6 mm 3 mps 735 mmHg 88%
    10:00 +4°C° 0.6 mm 3 mps 735 mmHg 87%
    11:00 +4°C° 0.7 mm 3 mps 734 mmHg 86%
    12:00 +4°C° 0.7 mm 3 mps 734 mmHg 86%
    13:00 +4°C° 0.7 mm 3 mps 734 mmHg 86%
    14:00 +4°C° 0.4 mm 3 mps 734 mmHg 85%
    15:00 +4°C° 0.4 mm 3 mps 734 mmHg 84%
    16:00 +4°C° 0.4 mm 3 mps 734 mmHg 84%
    17:00 +3°C° 0.2 mm 3 mps 734 mmHg 84%
    18:00 +2°C° 0.2 mm 3 mps 734 mmHg 84%
    19:00 0°C° 0.2 mm 4 mps 734 mmHg 84%
    20:00 0°C° 0 mm 4 mps 734 mmHg 83%
    21:00 -1°C° 0 mm 4 mps 734 mmHg 83%
    22:00 -1°C° 0 mm 4 mps 734 mmHg 82%
    23:00 -2°C° 0.1 mm 4 mps 734 mmHg 81%

    26 February, Monday

    Time Temperature Precipitation Wind Pressure Humidity
    00:00 -2°C° 0.1 mm 4 mps 733 mmHg 81%
    01:00 -2°C° 0.1 mm 4 mps 733 mmHg 80%
    02:00 -2°C° 0.2 mm 5 mps 733 mmHg 80%
    03:00 -4°C° 0.2 mm 5 mps 732 mmHg 81%
    04:00 -4°C° 0.2 mm 5 mps 732 mmHg 81%
    05:00 -4°C° 0.3 mm 5 mps 732 mmHg 81%
    06:00 -3°C° 0.3 mm 4 mps 732 mmHg 82%
    07:00 -3°C° 0.3 mm 4 mps 732 mmHg 83%
    08:00 -3°C° 0.4 mm 4 mps 732 mmHg 83%
    09:00 -2°C° 0.4 mm 4 mps 732 mmHg 83%
    10:00 -2°C° 0.4 mm 4 mps 732 mmHg 83%
    11:00 -1°C° 0.4 mm 4 mps 731 mmHg 82%
    12:00 0°C° 0.4 mm 3 mps 731 mmHg 82%
    13:00 0°C° 0.4 mm 3 mps 731 mmHg 82%
    14:00 0°C° 0.4 mm 3 mps 731 mmHg 83%
    15:00 0°C° 0.4 mm 3 mps 731 mmHg 84%
    16:00 -1°C° 0.4 mm 3 mps 730 mmHg 84%
    17:00 -1°C° 0.4 mm 3 mps 731 mmHg 85%
    18:00 -2°C° 0.4 mm 3 mps 731 mmHg 86%
    19:00 -4°C° 0.4 mm 3 mps 731 mmHg 87%
    20:00 -4°C° 0.3 mm 3 mps 731 mmHg 87%
    21:00 -4°C° 0.3 mm 3 mps 731 mmHg 87%
    22:00 -5°C° 0.3 mm 3 mps 731 mmHg 87%
    23:00 -5°C° 0.3 mm 3 mps 731 mmHg 87%
    Show more